Weather History for Eureka, NV

Change the Weather History Date:

Thursday, November 15, 2012

  Actual Average Record
Temperature  
Mean Temperature 40 °F 35 °F  
Max Temperature 60 °F 50 °F 69 °F (1999)
Min Temperature 19 °F 20 °F -1 °F (2000)
Degree Days  
Heating Degree Days 25 30  
Month to date heating degree days 383 411  
Since 1 July heating degree days 940 1258  
Cooling Degree Days 0 0  
Month to date cooling degree days 0 0  
Year to date cooling degree days 529 288  
Moisture  
Dew Point 20 °F    
Average Humidity 52    
Maximum Humidity 84    
Minimum Humidity 19    
Precipitation  
Precipitation 0.00 in 0.03 in 0.35 in (1963)
Month to date precipitation 0.23 0.44  
Year to date precipitation 5.90 8.05  
Sea Level Pressure  
Sea Level Pressure 30.13 in    
Wind  
Wind Speed 9 mph (SSE)    
Max Wind Speed 21 mph    
Max Gust Speed 25 mph    
T = Trace of Precipitation, MM = Missing Value Source: NWS Daily Summary

Daily Weather History Graph

Daily Weather History Graph

Search for Another Location

Airport:

Trip Planner

Search our weather history database for the weather conditions in past years. The results will help you decide how hot, cold, wet, or windy it might be!

Date:

Astronomy

Nov. 15, 2012 Rise Set
Actual Time 6:28 AM PST 4:28 PM PST
Civil Twilight 6:00 AM PST 4:56 PM PST
Nautical Twilight 5:27 AM PST 5:29 PM PST
Astronomical Twilight 4:55 AM PST 6:01 PM PST
Moon 8:28 AM PST (11/15) 6:24 PM PST (11/15)
Length of Visible Light 10h 56m
Length of Day
9h 59m
Waxing Crescent, 5% of the Moon is Illuminated
Nov 15
Waxing Crescent
Nov 20
First Quarter
Nov 28
Full
Dec 6
Last Quarter
Dec 13
New

Hourly Weather History & Observations

Time (PST) Temp. Windchill Dew Point Humidity Pressure Visibility Wind Dir Wind Speed Gust Speed Precip Events Conditions
12:53 AM 27.0 °F 19.5 °F 21.0 °F 78% 30.17 in - South 6.9 mph - N/A   Unknown
1:53 AM 28.0 °F 19.3 °F 19.0 °F 69% 30.17 in - SSW 9.2 mph - N/A   Unknown
2:53 AM 27.0 °F 19.5 °F 19.0 °F 72% 30.15 in - SSW 6.9 mph - N/A   Unknown
3:53 AM 21.0 °F 14.6 °F 16.0 °F 81% 30.20 in - WSW 4.6 mph - N/A   Unknown
4:53 AM 19.0 °F 12.3 °F 15.1 °F 85% 30.25 in - WSW 4.6 mph - N/A   Unknown
5:53 AM 23.0 °F 14.7 °F 17.1 °F 78% 30.27 in - SSW 6.9 mph - N/A   Unknown
6:53 AM 21.9 °F 14.5 °F 17.1 °F 82% 30.28 in - SSW 5.8 mph - N/A   Unknown
7:53 AM 28.0 °F 24.2 °F 19.9 °F 72% 30.27 in - South 3.5 mph - N/A   Unknown
8:53 AM 37.0 °F - 21.9 °F 54% 30.25 in - Calm Calm - N/A   Unknown
9:53 AM 42.1 °F 40.2 °F 24.1 °F 49% 30.23 in - ENE 3.5 mph - N/A   Unknown
10:53 AM 45.0 °F 43.5 °F 25.0 °F 46% 30.19 in - NE 3.5 mph - N/A   Unknown
11:53 AM 51.1 °F - 27.0 °F 39% 30.14 in - NE 5.8 mph - N/A   Unknown
12:53 PM 57.9 °F - 19.9 °F 23% 30.08 in - ESE 13.8 mph - N/A   Unknown
1:53 PM 59.0 °F - 18.0 °F 20% 30.05 in - SSE 15.0 mph - N/A   Unknown
2:53 PM 57.9 °F - 17.1 °F 20% 30.05 in - SSE 21.9 mph - N/A   Unknown
3:53 PM 53.1 °F - 19.9 °F 27% 30.08 in - SSE 11.5 mph - N/A   Unknown
4:53 PM 51.1 °F - 21.0 °F 31% 30.09 in - SSE 12.7 mph - N/A   Unknown
5:53 PM 48.0 °F - 21.0 °F 34% 30.08 in - SE 12.7 mph - N/A   Unknown
6:53 PM 48.9 °F - 18.0 °F 29% 30.08 in - SSE 8.1 mph - N/A   Unknown
7:53 PM 48.0 °F - 19.9 °F 33% 30.07 in - SSE 8.1 mph - N/A   Unknown
8:53 PM 48.9 °F - 19.9 °F 32% 30.04 in - SE 11.5 mph - N/A   Unknown
9:53 PM 48.0 °F - 19.0 °F 32% 30.01 in - South 12.7 mph - N/A   Unknown
10:53 PM 45.0 °F 39.3 °F 19.9 °F 37% 30.01 in - South 11.5 mph - N/A   Unknown
11:53 PM 46.0 °F 41.0 °F 19.9 °F 35% 29.99 in - South 10.4 mph - N/A   Unknown